When you browse on this site, cookies collect data to enhance your experience and personalize the content and advertising you see.
Visit our Privacy Policy to learn more. By continuing to use the site, you agree to this use of cookies and data.
  • In France
  • List of Countries
  • For 7 days
  • Water Temperature
  • Satellite Maps
  • Weather Map
  • Weather Widgets
  • user-avatar
    Login

    Hourly Weather Bukit Fraser

    Today, 25 May, Saturday

    Time Temperature Precipitation Wind Pressure Humidity
    00:00 +20°C° 0.8 mm 0 mps 680 mmHg 89%
    01:00 +19°C° 0 mm 0 mps 680 mmHg 89%
    02:00 +19°C° 0.4 mm 0 mps 680 mmHg 89%
    03:00 +19°C° 0.4 mm 0 mps 680 mmHg 90%
    04:00 +19°C° 0.4 mm 0 mps 680 mmHg 90%
    05:00 +19°C° 0.8 mm 0 mps 680 mmHg 89%
    06:00 +20°C° 0.8 mm 0 mps 680 mmHg 88%
    07:00 +21°C° 0 mm 0 mps 681 mmHg 84%
    08:00 +23°C° 0.1 mm 0 mps 681 mmHg 75%
    09:00 +27°C° 0.1 mm 1 mps 682 mmHg 65%
    10:00 +29°C° 0.1 mm 1 mps 682 mmHg 56%
    11:00 +29°C° 0.8 mm 1 mps 682 mmHg 57%
    12:00 +30°C° 0.8 mm 1 mps 682 mmHg 59%
    13:00 +30°C° 0 mm 1 mps 681 mmHg 58%
    14:00 +29°C° 1.4 mm 1 mps 681 mmHg 62%
    15:00 +29°C° 1.4 mm 1 mps 680 mmHg 66%
    16:00 +28°C° 1.4 mm 1 mps 680 mmHg 70%
    17:00 +26°C° 1.2 mm 1 mps 679 mmHg 75%
    18:00 +25°C° 1.2 mm 1 mps 679 mmHg 80%
    19:00 +23°C° 1.2 mm 1 mps 679 mmHg 85%
    20:00 +21°C° 0.5 mm 0 mps 680 mmHg 86%
    21:00 +21°C° 0.5 mm 0 mps 680 mmHg 87%
    22:00 +20°C° 0.5 mm 0 mps 680 mmHg 88%
    23:00 +20°C° 0.3 mm 0 mps 680 mmHg 88%

    Tomorrow, 26 May, Sunday

    Time Temperature Precipitation Wind Pressure Humidity
    00:00 +20°C° 0.3 mm 0 mps 680 mmHg 88%
    01:00 +20°C° 0.3 mm 0 mps 680 mmHg 88%
    02:00 +19°C° 0 mm 0 mps 680 mmHg 87%
    03:00 +19°C° 0 mm 0 mps 679 mmHg 86%
    04:00 +19°C° 0 mm 0 mps 679 mmHg 86%
    05:00 +19°C° 0 mm 0 mps 679 mmHg 85%
    06:00 +20°C° 0 mm 0 mps 679 mmHg 84%
    07:00 +20°C° 0 mm 0 mps 679 mmHg 83%
    08:00 +22°C° 0 mm 0 mps 680 mmHg 73%
    09:00 +27°C° 0 mm 1 mps 681 mmHg 64%
    10:00 +29°C° 0 mm 1 mps 682 mmHg 54%
    11:00 +30°C° 0 mm 1 mps 682 mmHg 52%
    12:00 +31°C° 0 mm 1 mps 681 mmHg 50%
    13:00 +31°C° 0 mm 1 mps 681 mmHg 47%
    14:00 +31°C° 0.9 mm 1 mps 680 mmHg 54%
    15:00 +30°C° 0.9 mm 1 mps 680 mmHg 61%
    16:00 +29°C° 0.9 mm 1 mps 679 mmHg 68%
    17:00 +27°C° 2.6 mm 1 mps 679 mmHg 75%
    18:00 +25°C° 2.6 mm 1 mps 679 mmHg 82%
    19:00 +23°C° 2.6 mm 1 mps 679 mmHg 89%
    20:00 +23°C° 1.3 mm 1 mps 679 mmHg 90%
    21:00 +23°C° 1.3 mm 1 mps 680 mmHg 90%
    22:00 +22°C° 1.3 mm 1 mps 680 mmHg 91%
    23:00 +20°C° 0.2 mm 0 mps 680 mmHg 90%

    Day after tomorrow, 27 May, Monday

    Time Temperature Precipitation Wind Pressure Humidity
    00:00 +20°C° 0.2 mm 0 mps 680 mmHg 90%
    01:00 +20°C° 0.2 mm 0 mps 680 mmHg 90%
    02:00 +20°C° 0.1 mm 0 mps 679 mmHg 90%
    03:00 +19°C° 0.1 mm 0 mps 679 mmHg 90%
    04:00 +19°C° 0.1 mm 0 mps 679 mmHg 90%
    05:00 +20°C° 0 mm 0 mps 679 mmHg 89%
    06:00 +20°C° 0 mm 0 mps 679 mmHg 88%
    07:00 +20°C° 0 mm 0 mps 680 mmHg 87%
    08:00 +22°C° 0 mm 0 mps 680 mmHg 78%
    09:00 +26°C° 0 mm 1 mps 681 mmHg 69%
    10:00 +29°C° 0 mm 1 mps 682 mmHg 60%
    11:00 +29°C° 0.4 mm 1 mps 681 mmHg 60%
    12:00 +30°C° 0.4 mm 1 mps 681 mmHg 60%
    13:00 +30°C° 0.4 mm 1 mps 681 mmHg 60%
    14:00 +29°C° 1.2 mm 1 mps 680 mmHg 64%
    15:00 +28°C° 1.2 mm 1 mps 679 mmHg 69%
    16:00 +27°C° 1.2 mm 1 mps 678 mmHg 73%
    17:00 +26°C° 1.5 mm 1 mps 678 mmHg 78%
    18:00 +25°C° 1.5 mm 1 mps 678 mmHg 82%
    19:00 +23°C° 1.5 mm 1 mps 679 mmHg 87%
    20:00 +21°C° 1.4 mm 0 mps 679 mmHg 88%
    21:00 +21°C° 1.4 mm 0 mps 680 mmHg 89%
    22:00 +21°C° 1.4 mm 0 mps 680 mmHg 90%
    23:00 +20°C° 0.4 mm 0 mps 680 mmHg 90%

    28 May, Tuesday

    Time Temperature Precipitation Wind Pressure Humidity
    00:00 +20°C° 0.4 mm 0 mps 680 mmHg 91%
    01:00 +20°C° 0.4 mm 0 mps 679 mmHg 91%
    02:00 +20°C° 0.5 mm 0 mps 679 mmHg 91%
    03:00 +20°C° 0.5 mm 0 mps 679 mmHg 91%
    04:00 +19°C° 0.5 mm 0 mps 678 mmHg 92%
    05:00 +20°C° 0.2 mm 0 mps 679 mmHg 91%
    06:00 +20°C° 0.2 mm 0 mps 679 mmHg 90%
    07:00 +20°C° 0.2 mm 0 mps 680 mmHg 89%
    08:00 +22°C° 0.5 mm 0 mps 681 mmHg 81%
    09:00 +26°C° 0.5 mm 1 mps 681 mmHg 73%
    10:00 +28°C° 0.5 mm 1 mps 682 mmHg 66%
    11:00 +28°C° 0.9 mm 1 mps 681 mmHg 66%
    12:00 +29°C° 0.9 mm 1 mps 681 mmHg 67%
    13:00 +29°C° 0.9 mm 1 mps 680 mmHg 67%
    14:00 +28°C° 1.3 mm 1 mps 680 mmHg 70%
    15:00 +28°C° 1.3 mm 1 mps 679 mmHg 72%
    16:00 +27°C° 1.3 mm 1 mps 678 mmHg 75%
    17:00 +26°C° 1 mm 1 mps 678 mmHg 80%
    18:00 +24°C° 1 mm 1 mps 679 mmHg 85%
    19:00 +23°C° 1 mm 1 mps 679 mmHg 89%
    20:00 +23°C° 1.1 mm 1 mps 679 mmHg 90%
    21:00 +20°C° 1.1 mm 0 mps 680 mmHg 90%
    22:00 +20°C° 1.1 mm 0 mps 680 mmHg 91%
    23:00 +20°C° 0.3 mm 0 mps 680 mmHg 90%

    29 May, Wednesday

    Time Temperature Precipitation Wind Pressure Humidity
    00:00 +20°C° 0.3 mm 0 mps 680 mmHg 90%
    01:00 +20°C° 0.3 mm 0 mps 679 mmHg 90%
    02:00 +19°C° 0.2 mm 0 mps 679 mmHg 90%
    03:00 +19°C° 0.2 mm 0 mps 679 mmHg 90%
    04:00 +19°C° 0.2 mm 0 mps 678 mmHg 91%
    05:00 +19°C° 0.1 mm 0 mps 679 mmHg 90%
    06:00 +19°C° 0.1 mm 0 mps 679 mmHg 89%
    07:00 +20°C° 0.1 mm 0 mps 680 mmHg 87%
    08:00 +22°C° 0.1 mm 0 mps 681 mmHg 77%
    09:00 +25°C° 0.1 mm 0 mps 681 mmHg 66%
    10:00 +27°C° 0.1 mm 0 mps 682 mmHg 56%
    11:00 +28°C° 0.7 mm 0 mps 682 mmHg 57%
    12:00 +28°C° 0.7 mm 0 mps 681 mmHg 58%
    13:00 +30°C° 0.7 mm 1 mps 681 mmHg 59%
    14:00 +29°C° 1.2 mm 1 mps 680 mmHg 62%
    15:00 +29°C° 1.2 mm 1 mps 679 mmHg 65%
    16:00 +26°C° 1.2 mm 0 mps 679 mmHg 68%
    17:00 +24°C° 1.7 mm 0 mps 679 mmHg 74%
    18:00 +23°C° 1.7 mm 0 mps 679 mmHg 80%
    19:00 +21°C° 1.7 mm 0 mps 679 mmHg 86%
    20:00 +21°C° 2.3 mm 0 mps 679 mmHg 88%
    21:00 +20°C° 2.3 mm 0 mps 680 mmHg 89%
    22:00 +20°C° 2.3 mm 0 mps 680 mmHg 91%
    23:00 +20°C° 0.3 mm 0 mps 680 mmHg 91%

    30 May, Thursday

    Time Temperature Precipitation Wind Pressure Humidity
    00:00 +20°C° 0.3 mm 0 mps 680 mmHg 91%
    01:00 +20°C° 0.3 mm 0 mps 679 mmHg 91%
    02:00 +19°C° 0.7 mm 0 mps 679 mmHg 92%
    03:00 +19°C° 0.7 mm 0 mps 679 mmHg 92%
    04:00 +19°C° 0.7 mm 0 mps 679 mmHg 93%
    05:00 +19°C° 2.2 mm 0 mps 679 mmHg 93%
    06:00 +19°C° 2.2 mm 0 mps 679 mmHg 92%
    07:00 +20°C° 2.2 mm 0 mps 680 mmHg 92%
    08:00 +21°C° 1.6 mm 0 mps 680 mmHg 86%
    09:00 +23°C° 1.6 mm 0 mps 681 mmHg 81%
    10:00 +27°C° 1.6 mm 1 mps 681 mmHg 75%
    11:00 +27°C° 1.7 mm 1 mps 681 mmHg 74%
    12:00 +27°C° 1.7 mm 1 mps 681 mmHg 73%
    13:00 +28°C° 1.7 mm 1 mps 680 mmHg 73%
    14:00 +27°C° 2.1 mm 1 mps 680 mmHg 76%
    15:00 +27°C° 2.1 mm 1 mps 679 mmHg 78%
    16:00 +26°C° 2.1 mm 1 mps 679 mmHg 81%
    17:00 +23°C° 1.8 mm 0 mps 679 mmHg 85%
    18:00 +21°C° 1.8 mm 0 mps 679 mmHg 88%
    19:00 +20°C° 1.8 mm 0 mps 680 mmHg 92%
    20:00 +20°C° 2.2 mm 0 mps 680 mmHg 92%
    21:00 +20°C° 2.2 mm 0 mps 680 mmHg 92%
    22:00 +19°C° 2.2 mm 0 mps 681 mmHg 93%
    23:00 +19°C° 1.2 mm 0 mps 680 mmHg 93%
    Show more